This demonstration page uses our WeatherBlox Daily Observations layout. Learn more.

Left ArrowRight Arrow

36.19886, -115.1175

Hourly Observations for August 29, 2016

Temp ( °F °C ) Dew Point ( °F °C ) Humidity (%) Winds ( mph kmh ) Pressure ( in mb ) Visibility ( mi km ) Precip ( " mm )
12:53 am 00:53 Clear 82 27.8 50 10 33 33 WNW 5 7 29.97 1015 10 16.0934 0 0
1:53 am 01:53 Clear 80 26.7 51 10.6 37 37 WNW 3 6 29.96 1015 10 16.0934 0 0
2:53 am 02:53 Clear 78 25.6 51 10.6 39 39 Calm 29.97 1015 10 16.0934 0 0
3:53 am 03:53 Clear 77 25 47 8.3 35 35 NNE 6 9 29.98 1015 10 16.0934 0 0
4:53 am 04:53 Clear 74 23.3 46 7.8 37 37 NNW 5 7 29.98 1015 10 16.0934 0 0
5:53 am 05:53 Clear 76 24.4 48 8.9 37 37 NW 6 9 29.99 1016 10 16.0934 0 0
6:53 am 06:53 Sunny 78 25.6 45 7.2 31 31 NW 5 7 30 1016 10 16.0934 0 0
7:53 am 07:53 Sunny 82 27.8 46 7.8 28 28 NW 5 7 30.01 1016 10 16.0934 0 0
8:53 am 08:53 Sunny 87 30.6 42 5.6 21 21 NNE 3 6 30.01 1016 10 16.0934 0 0
9:53 am 09:53 Sunny 90 32.2 46 7.8 22 22 VRB 3 6 30.01 1016 10 16.0934 0 0
10:53 am 10:53 Sunny 92 33.3 45 7.2 20 20 VRB 5 7 30.01 1016 10 16.0934 0 0
11:53 am 11:53 Sunny 95 35 44 6.7 17 17 VRB 3 6 29.98 1015 10 16.0934 0 0
12:53 pm 12:53 Sunny 98 36.7 44 6.7 16 16 VRB 3 6 29.95 1014 10 16.0934 0 0
1:53 pm 13:53 Sunny 100 37.8 43 6.1 14 14 undefined N/A 29.94 1014 10 16.0934 0 0
2:53 pm 14:53 Sunny 101 38.3 38 3.3 11 11 E 7 11 29.91 1013 10 16.0934 0 0
3:53 pm 15:53 Sunny 102 38.9 33 0.6 9 9 VRB 6 9 29.88 1012 10 16.0934 0 0
4:53 pm 16:53 Sunny 102 38.9 35 1.7 10 10 SE 7 11 29.87 1012 10 16.0934 0 0
5:53 pm 17:53 Sunny 102 38.9 34 1.1 9 9 NNE 3 6 29.86 1011 10 16.0934 0 0
6:53 pm 18:53 Sunny 100 37.8 35 1.7 10 10 Calm 29.85 1011 10 16.0934 0 0
7:53 pm 19:53 Clear 98 36.7 38 3.3 12 12 SW 3 6 29.86 1011 10 16.0934 0 0
8:53 pm 20:53 Clear 94 34.4 42 5.6 17 17 W 5 7 29.87 1012 10 16.0934 0 0
9:53 pm 21:53 Clear 89 31.7 43 6.1 20 20 NNW 7 11 29.88 1012 10 16.0934 0 0
10:53 pm 22:53 Clear 88 31.1 39 3.9 18 18 WNW 7 11 29.88 1012 10 16.0934 0 0
11:53 pm 23:53 Clear 85 29.4 39 3.9 20 20 NW 7 11 29.88 1012 10 16.0934 0 0

Powered by AerisWeather